Wind_Speed
8 8 8 8 8 9 9 9 8 8 8 8 7 7 7 8 8 8 9 9 9 9 9 10 10 11 11 11 11 12 13 13 13 13 14 15 15 15 16 16 15 15 16 16
8 8 8 8 9 9 8 8 8 7 8 8 7 8 8 8 8 8 9 9 9 10 11 11 11 11 12 13 13 13 14 14 14 15 16 16 17 17 17 17 17 17 17 17
8 8 8 8 8 7 7 7 7 8 8 8 9 8 9 9 9 9 10 10 10 11 12 13 13 13 14 14 14 15 16 16 17 17 17 18 18 18 18 18 19 18 18 18
8 9 9 9 9 9 9 8 9 9 10 9 9 9 9 10 10 10 11 11 11 12 13 14 15 16 16 16 16 17 17 17 18 18 18 18 19 19 18 19 19 20 19 20
9 9 9 10 9 10 10 9 10 9 10 10 11 11 10 11 11 11 11 12 12 13 14 16 16 17 18 18 18 18 18 19 19 20 20 20 19 20 20 20 20 20 20 20
10 10 10 11 10 10 10 10 10 11 11 11 13 13 12 11 12 13 14 13 14 15 16 18 18 18 19 20 20 20 20 20 20 21 21 22 21 21 21 21 21 21 22 22
11 11 11 11 11 11 11 12 12 13 13 13 14 14 13 13 13 14 15 15 16 17 18 19 19 20 20 21 21 21 21 21 21 22 22 22 22 22 22 22 22 23 23 23
12 12 11 12 12 13 12 13 13 14 15 15 16 16 15 15 15 16 17 17 17 18 19 19 20 20 20 21 22 23 23 22 23 23 23 23 23 24 24 24 24 24 25 25
13 13 13 12 13 13 13 14 15 16 17 18 18 18 17 17 17 18 19 19 19 20 20 20 21 22 22 23 23 24 24 23 23 24 24 25 25 25 25 25 25 25 25 26
15 14 14 14 14 14 14 15 16 17 18 19 19 19 18 18 19 20 20 20 21 20 20 21 22 23 23 24 24 24 25 25 25 25 26 25 25 26 26 26 27 26 26 27
16 16 15 16 16 16 16 16 17 19 20 21 22 20 20 20 21 21 22 22 22 22 22 22 23 24 24 25 25 25 26 26 25 25 26 26 26 26 26 26 27 27 27 27
18 18 18 17 17 18 18 19 19 20 22 23 23 22 21 22 22 23 23 23 23 23 23 24 24 25 25 26 26 26 26 26 26 27 27 27 27 27 27 27 27 27 28 28
19 19 19 19 20 19 20 20 20 21 23 24 24 24 24 24 24 24 25 25 25 25 25 25 25 26 26 27 27 27 26 27 27 28 28 28 28 27 27 28 28 28 29 28
19 20 20 20 20 20 20 20 20 22 23 24 24 24 24 25 26 26 25 25 25 25 25 26 26 27 27 27 28 28 27 27 28 28 29 29 29 28 28 29 30 29 29 28
21 21 21 20 20 21 20 20 21 23 24 25 24 24 24 25 26 27 27 26 26 26 26 26 26 27 28 28 28 29 29 29 29 28 29 30 29 28 28 29 30 30 29 29
22 22 22 21 21 21 21 21 22 23 24 24 24 25 25 25 26 26 26 26 26 26 26 27 27 28 28 28 28 29 30 30 30 29 29 29 29 29 28 28 29 29 29 29
23 23 23 21 22 23 23 22 23 23 24 25 25 25 25 25 26 25 26 26 26 26 27 27 27 28 28 29 29 30 30 30 30 29 29 29 29 29 29 29 29 28 28 28
23 23 24 23 24 25 23 22 23 23 24 24 23 24 25 25 25 26 26 26 26 26 26 26 26 27 28 29 30 30 31 30 30 30 30 30 30 29 29 28 29 29 28 28
23 23 24 24 25 25 23 23 23 24 23 23 23 23 23 25 26 26 26 26 26 26 26 26 26 27 28 29 30 30 30 30 30 31 31 30 29 29 28 29 29 29 29 28
24 24 24 25 26 26 24 24 24 25 24 23 23 24 24 26 26 26 26 27 27 27 27 27 28 28 28 29 29 29 29 29 30 30 31 30 29 29 29 29 29 30 29 28
24 24 24 25 26 26 25 24 24 24 24 24 25 25 25 26 26 26 27 27 27 27 27 27 28 28 29 29 29 29 30 30 30 30 30 30 30 29 29 29 28 28 28 27
24 24 24 25 26 25 25 24 24 25 25 25 25 26 26 27 27 27 27 26 27 27 27 27 27 28 28 29 29 29 30 31 31 31 30 29 29 29 29 28 27 27 27 27
25 25 25 25 26 26 25 25 25 25 25 25 26 26 26 27 27 27 27 27 27 28 27 27 27 27 28 29 29 29 30 31 31 30 30 29 29 28 28 28 27 26 25 26
25 25 26 26 26 26 26 26 26 26 26 26 26 26 26 26 27 27 27 27 27 27 27 27 28 28 28 29 29 30 30 30 30 30 30 29 28 27 27 27 26 25 26 26
24 25 26 26 27 27 27 27 26 26 26 26 26 26 27 27 27 28 28 27 27 27 27 28 28 29 29 29 29 29 29 29 29 29 28 27 27 27 27 27 27 26 26 26
25 26 26 26 27 28 27 27 27 26 26 27 27 26 26 27 28 28 27 28 28 29 28 28 28 29 29 28 28 28 28 28 28 27 27 26 26 26 27 27 27 26 26 25
Wind_Direction
264 267 273 280 281 277 277 278 277 281 280 278 276 273 274 274 273 274 271 275 280 285 288 289 290 293 293 292 291 290 290 290 291 294 296 297 295 292 290 289 286 284 282 282
264 270 273 277 281 280 276 279 278 277 280 281 281 280 278 270 272 272 270 275 281 284 286 286 287 290 289 290 290 288 287 287 288 290 292 293 293 290 288 288 287 285 283 282
266 271 275 280 282 279 279 282 284 280 281 281 281 277 277 269 269 270 274 280 283 285 285 286 286 286 286 285 287 287 286 286 286 287 289 291 291 290 289 289 287 285 284 283
265 272 275 277 278 277 275 277 278 279 280 281 277 277 277 273 276 278 278 280 282 284 283 285 287 286 285 284 284 286 286 285 284 286 287 288 290 291 289 288 286 284 284 283
266 270 275 277 278 276 274 273 273 275 277 278 277 280 281 279 277 282 281 279 281 284 282 283 284 286 287 285 283 285 284 284 284 284 285 286 288 290 289 287 287 286 285 285
268 273 277 278 275 275 278 275 275 274 274 276 282 285 283 281 280 283 284 282 282 285 285 284 284 286 286 284 284 284 286 286 286 285 284 284 286 287 287 286 285 285 285 286
268 271 274 275 273 273 274 274 275 275 273 277 283 284 283 283 282 283 283 284 284 285 287 287 286 287 285 284 285 286 286 286 286 286 284 284 284 285 285 285 284 283 284 285
269 268 270 272 273 274 272 272 276 278 279 281 281 280 283 282 283 283 283 285 287 286 286 286 284 284 284 285 286 286 286 284 284 284 284 284 283 284 283 283 283 283 283 283
270 269 268 268 269 270 270 272 276 278 280 282 281 283 282 283 282 283 285 286 288 288 288 287 285 283 285 287 286 284 282 282 283 283 282 283 282 282 282 283 283 283 284 283
271 272 272 272 271 271 273 276 277 278 281 282 282 283 287 285 284 285 286 287 288 289 289 288 286 286 286 287 287 284 281 282 282 283 283 283 284 284 284 284 285 284 283 283
271 272 272 270 269 272 274 277 278 279 281 283 285 286 286 286 285 285 285 285 286 289 290 287 286 285 287 285 285 286 283 281 280 281 281 282 284 284 283 283 284 285 284 282
270 270 270 271 270 272 274 278 280 280 282 284 287 286 284 284 283 283 284 285 286 288 288 286 285 285 286 285 283 285 284 283 283 282 282 283 283 284 283 283 284 284 284 284
271 271 270 270 271 273 275 277 278 279 281 283 284 285 285 283 284 285 285 286 285 287 288 286 284 283 285 286 285 285 284 283 283 283 283 282 282 283 284 284 285 285 285 283
271 271 272 272 274 277 277 276 278 279 281 283 284 285 283 284 285 286 287 287 286 287 288 286 283 281 281 284 286 285 284 284 284 284 283 283 282 282 283 285 286 286 285 283
272 273 273 274 275 275 278 280 279 279 281 283 286 286 286 283 284 284 286 287 288 289 288 288 286 284 283 284 285 286 286 285 283 283 283 284 283 282 284 285 285 285 285 283
272 272 272 272 272 275 278 280 281 282 283 285 286 286 286 285 284 283 283 285 286 286 287 288 288 287 286 285 285 286 286 287 285 284 284 285 284 283 283 284 284 285 284 283
273 273 273 273 273 276 276 280 282 283 284 287 289 290 289 288 288 286 285 285 286 286 286 287 287 288 288 286 286 286 286 286 286 284 284 285 285 283 282 282 283 284 284 283
274 273 274 273 274 274 278 279 280 283 286 288 290 290 290 290 290 289 289 286 284 286 286 286 288 289 290 289 287 286 286 285 285 285 285 284 283 283 283 283 283 283 283 282
272 272 271 272 273 275 277 279 281 283 285 287 289 290 290 290 290 290 289 288 285 286 285 285 287 290 291 290 290 289 288 287 286 286 286 286 284 282 282 282 282 282 281 280
273 272 272 273 274 278 279 281 282 283 284 288 289 289 289 291 292 292 290 288 287 287 288 286 286 288 291 291 291 291 290 289 288 288 287 286 284 283 283 282 282 281 279 276
274 273 273 275 275 278 280 282 283 283 287 288 288 288 290 291 292 292 291 290 289 289 289 288 287 287 288 290 291 291 290 290 290 290 289 286 285 284 284 282 282 280 278 276
276 275 275 277 278 280 282 283 283 285 287 287 288 289 290 291 292 292 292 293 292 291 291 289 290 290 289 290 292 291 291 291 291 290 290 288 286 284 283 281 279 279 278 276
277 277 276 276 279 281 283 283 284 286 287 288 290 291 291 291 292 291 292 292 291 291 291 290 290 292 291 292 292 292 292 292 292 291 290 288 287 286 282 281 280 279 277 277
278 279 276 275 277 280 282 282 282 285 287 289 289 290 291 291 292 291 291 291 290 291 290 289 290 292 293 293 293 294 293 292 292 291 290 287 286 285 285 283 280 277 277 277
277 276 276 276 277 279 280 280 281 283 285 287 288 289 290 291 292 292 291 291 290 290 290 290 290 292 293 294 294 295 294 293 292 292 290 287 285 284 284 283 281 279 277 277
277 277 278 278 278 280 282 281 280 282 284 285 286 288 289 291 293 293 291 291 292 292 292 290 290 291 293 294 294 294 294 294 294 292 289 286 285 284 283 283 281 280 278 276
Height
5858 5858 5857 5857 5857 5856 5856 5855 5855 5855 5854 5854 5853 5853 5854 5853 5853 5853 5853 5853 5853 5853 5853 5852 5852 5851 5850 5850 5849 5848 5848 5847 5846 5845 5844 5843 5842 5841 5840 5839 5838 5838 5837 5836
5856 5856 5855 5854 5854 5853 5853 5852 5852 5852 5851 5851 5851 5851 5851 5850 5850 5850 5850 5850 5850 5850 5849 5849 5848 5848 5847 5846 5845 5844 5844 5843 5842 5841 5840 5839 5838 5837 5836 5835 5834 5833 5832 5831
5853 5853 5852 5852 5851 5850 5850 5850 5849 5849 5849 5848 5848 5848 5848 5847 5847 5847 5847 5847 5847 5846 5846 5845 5844 5844 5843 5842 5841 5840 5839 5838 5838 5837 5836 5835 5834 5832 5831 5830 5829 5828 5827 5827
5850 5850 5849 5849 5848 5847 5847 5847 5846 5846 5845 5845 5845 5845 5845 5844 5844 5844 5844 5843 5842 5842 5842 5841 5840 5839 5838 5837 5836 5836 5834 5834 5833 5831 5830 5830 5828 5827 5826 5825 5824 5823 5822 5821
5847 5847 5846 5846 5845 5844 5844 5843 5843 5842 5842 5842 5841 5841 5842 5840 5840 5840 5839 5839 5838 5837 5837 5836 5835 5834 5833 5832 5831 5830 5829 5828 5827 5826 5825 5824 5823 5822 5821 5820 5818 5818 5817 5816
5844 5843 5843 5842 5842 5841 5840 5840 5840 5839 5838 5838 5838 5837 5837 5836 5836 5835 5835 5834 5833 5832 5831 5830 5829 5828 5827 5826 5825 5824 5824 5823 5821 5820 5819 5818 5817 5816 5815 5814 5813 5812 5811 5810
5840 5839 5839 5838 5838 5837 5837 5837 5836 5835 5834 5834 5834 5832 5833 5832 5831 5830 5830 5829 5829 5827 5826 5825 5824 5823 5822 5820 5819 5818 5817 5816 5815 5814 5813 5812 5811 5810 5809 5808 5807 5806 5805 5804
5835 5836 5835 5834 5834 5833 5833 5833 5833 5832 5830 5830 5829 5828 5829 5827 5826 5826 5825 5824 5823 5822 5821 5820 5818 5817 5816 5815 5813 5812 5811 5810 5809 5807 5806 5805 5804 5803 5802 5801 5800 5799 5798 5797
5831 5831 5831 5830 5829 5829 5828 5828 5828 5827 5825 5824 5823 5823 5823 5822 5821 5820 5819 5818 5817 5816 5815 5814 5813 5811 5810 5809 5807 5806 5804 5803 5802 5801 5799 5798 5797 5796 5795 5794 5793 5792 5791 5789
5826 5826 5826 5825 5825 5824 5824 5824 5823 5822 5820 5818 5818 5818 5818 5817 5816 5815 5813 5812 5811 5810 5809 5808 5806 5805 5803 5802 5800 5798 5797 5796 5795 5793 5792 5791 5789 5788 5787 5787 5785 5784 5783 5781
5821 5821 5821 5821 5820 5820 5820 5819 5817 5816 5815 5814 5812 5815 5812 5811 5810 5809 5808 5806 5805 5804 5803 5801 5799 5797 5795 5794 5792 5791 5790 5788 5787 5786 5784 5783 5782 5781 5780 5779 5778 5776 5775 5773
5815 5815 5815 5815 5815 5814 5814 5813 5812 5811 5809 5808 5806 5809 5805 5804 5803 5802 5801 5800 5798 5797 5795 5793 5792 5790 5788 5786 5785 5783 5782 5780 5779 5778 5777 5775 5774 5773 5772 5771 5769 5768 5766 5765
5809 5809 5809 5809 5810 5809 5808 5807 5806 5805 5803 5801 5800 5802 5799 5797 5796 5795 5794 5793 5791 5790 5788 5786 5784 5782 5780 5779 5777 5775 5774 5772 5771 5770 5768 5767 5766 5765 5764 5763 5761 5760 5758 5756
5803 5803 5804 5804 5802 5802 5801 5801 5799 5798 5796 5795 5794 5793 5793 5791 5789 5788 5786 5785 5784 5782 5780 5779 5777 5775 5773 5771 5769 5768 5766 5764 5763 5761 5760 5758 5757 5757 5755 5754 5753 5751 5749 5748
5797 5797 5797 5796 5796 5795 5795 5794 5793 5792 5790 5789 5788 5786 5785 5783 5782 5780 5779 5777 5776 5774 5773 5771 5769 5767 5765 5763 5761 5760 5758 5756 5754 5753 5751 5749 5748 5747 5746 5745 5743 5742 5740 5739
5791 5790 5790 5790 5790 5789 5788 5788 5786 5785 5783 5782 5781 5779 5778 5776 5775 5773 5771 5770 5768 5766 5765 5763 5761 5759 5757 5755 5753 5751 5749 5747 5745 5744 5742 5741 5739 5738 5736 5735 5734 5732 5731 5729
5784 5783 5783 5783 5783 5782 5782 5781 5780 5778 5777 5775 5774 5773 5771 5769 5767 5766 5764 5762 5760 5759 5757 5755 5753 5751 5749 5747 5745 5743 5741 5739 5737 5735 5734 5732 5730 5728 5727 5726 5725 5723 5722 5720
5777 5777 5776 5776 5776 5775 5778 5775 5773 5772 5770 5769 5767 5765 5763 5762 5760 5758 5756 5754 5752 5750 5749 5747 5745 5743 5741 5739 5737 5735 5732 5730 5728 5727 5725 5723 5721 5720 5718 5717 5715 5714 5713 5711
5770 5770 5769 5769 5768 5768 5770 5768 5766 5765 5763 5762 5760 5758 5756 5754 5752 5751 5749 5747 5744 5743 5741 5739 5737 5735 5733 5731 5728 5726 5724 5722 5720 5718 5716 5713 5711 5710 5709 5708 5706 5704 5703 5702
5763 5762 5763 5761 5761 5761 5763 5761 5759 5758 5757 5756 5753 5751 5749 5747 5745 5744 5741 5739 5737 5734 5732 5730 5729 5727 5725 5722 5720 5718 5716 5714 5711 5709 5707 5704 5702 5701 5700 5698 5697 5695 5694 5692
5757 5756 5756 5754 5753 5753 5755 5753 5752 5752 5751 5749 5746 5744 5742 5740 5738 5736 5733 5731 5729 5726 5724 5722 5720 5718 5716 5714 5712 5710 5707 5705 5703 5700 5698 5696 5693 5692 5690 5689 5687 5686 5685 5684
5750 5749 5749 5748 5747 5749 5747 5746 5745 5744 5742 5740 5739 5737 5735 5733 5730 5728 5726 5723 5720 5718 5716 5714 5712 5709 5707 5705 5703 5701 5699 5696 5694 5691 5689 5687 5685 5683 5681 5680 5678 5677 5676 5675
5743 5743 5742 5742 5742 5741 5739 5738 5737 5736 5734 5733 5731 5729 5727 5725 5722 5720 5718 5715 5713 5711 5708 5706 5704 5702 5699 5697 5694 5692 5690 5687 5685 5682 5680 5678 5676 5674 5672 5671 5670 5669 5668 5667
5736 5735 5734 5733 5733 5733 5731 5730 5729 5728 5726 5724 5723 5721 5719 5717 5714 5712 5710 5707 5705 5703 5701 5699 5696 5694 5691 5689 5686 5684 5681 5678 5676 5674 5672 5670 5668 5666 5664 5662 5661 5660 5659 5658
5729 5727 5726 5725 5725 5724 5724 5722 5721 5720 5718 5716 5715 5713 5711 5708 5706 5704 5702 5700 5697 5695 5693 5691 5688 5686 5684 5681 5678 5675 5672 5669 5667 5665 5663 5661 5659 5658 5656 5654 5652 5651 5650 5648
5721 5720 5719 5718 5718 5716 5716 5714 5713 5711 5710 5709 5707 5705 5703 5701 5698 5696 5694 5691 5689 5687 5685 5682 5680 5678 5675 5672 5670 5667 5664 5661 5659 5657 5655 5653 5651 5649 5648 5646 5644 5642 5641 5640